{"data":{"norad_id":62965,"epoch":"2026-05-24T17:37:36.479136Z","epoch_age_seconds":91198,"freshness":"FRESH","line1":"1 62965U 25029T   26144.73444999  .00017263  00000+0  59374-3 0  9991","line2":"2 62965  53.1590 236.8737 0001108  75.6961 284.4163 15.30192592 72995","mean_motion":15.30192592,"eccentricity":0.0001108,"inclination_deg":53.159,"raan_deg":236.8737,"arg_perigee_deg":75.6961,"mean_anomaly_deg":284.4163,"bstar":0.00059374,"rev_number":7299,"period_min":94.105801291188,"perigee_km":474.47783460118,"apogee_km":475.99654232134,"semimajor_km":6853.3741884613,"source":"CELESTRAK","updated_at":"2026-05-25T13:38:19.828139Z"}}